H-2A R/B

Last updated on Wed Sep 17 2025 00:02:15 GMT+0000 (Coordinated Universal Time)

1 43682U 18084L 25259.48484458 .00016896 00000+0 52413-3 0 9999 2 43682 98.8841 75.7847 0030006 264.1767 95.6049 15.33065148379012
UTC large
Height (km)
Speed (km/s)
/
Latitude / Longitude
Inclination (degrees)
Orbital Period (minutes)
Azimuth
Elevation
Range (km)
Doppler Factor

Next 0 passes for location: London (51.5072 / 0.1276)

Sorry there are no passes over London.